This is the latest recevied weather packets stored in our database for station/object KC1BRV. If no packets are shown the sender has not sent any weather packets the latest 10 day(s).
| Time | Temp. | Humidity | Pressure | Rain* | Wind** | Luminosity | Snow |
|---|---|---|---|---|---|---|---|
| 1787932532 | 26.11° C | 77% | 1017.3 hPa | 0 mm | - | 253 W/m² | - |
| 1787932227 | 26.67° C | 75% | 1017.2 hPa | 0 mm | - | 185 W/m² | - |
| 1787931927 | 26.67° C | 73% | 1017.2 hPa | 0 mm | - | 185 W/m² | - |
| 1787931626 | 26.67° C | 74% | 1017.2 hPa | 0 mm | - | 225 W/m² | - |
| 1787931321 | 26.67° C | 73% | 1017 hPa | 0 mm | - | 254 W/m² | - |
| 1787931022 | 26.67° C | 74% | 1017.3 hPa | 0 mm | - | 667 W/m² | - |
| 1787930715 | 26.67° C | 74% | 1017.5 hPa | 0 mm | - | 226 W/m² | - |
| 1787930410 | 26.67° C | 73% | 1017.2 hPa | 0 mm | - | 315 W/m² | - |
| 1787930113 | 26.11° C | 78% | 1017.2 hPa | 0 mm | - | 643 W/m² | - |
| 1787929803 | 26.11° C | 75% | 1017.2 hPa | 0 mm | - | 239 W/m² | - |
| 1787929498 | 26.67° C | 75% | 1017.5 hPa | 0 mm | - | 258 W/m² | - |
| 1787929205 | 26.67° C | 75% | 1017.5 hPa | 0 mm | - | 315 W/m² | - |
| 1787928890 | 26.67° C | 76% | 1017.4 hPa | 0 mm | - | 261 W/m² | - |
| 1787928585 | 26.67° C | 74% | 1017.2 hPa | 0 mm | - | 364 W/m² | - |
| 1787928284 | 26.11° C | 74% | 1017.2 hPa | 0 mm | - | 352 W/m² | - |
| 1787927983 | 26.11° C | 75% | 1017.2 hPa | 0 mm | - | 420 W/m² | - |
| 1787927677 | 26.11° C | 77% | 1017.2 hPa | 0 mm | - | 304 W/m² | - |
| 1787927377 | 26.11° C | 77% | 1017 hPa | 0 mm | - | 176 W/m² | - |
| 1787927073 | 26.11° C | 79% | 1017 hPa | 0 mm | - | 198 W/m² | - |
| 1787926768 | 25.56° C | 80% | 1017 hPa | 0 mm | - | 234 W/m² | - |
| 1787926466 | 25.56° C | 81% | 1017.1 hPa | 0 mm | - | 184 W/m² | - |
| 1787926166 | 25° C | 81% | 1017.2 hPa | 0 mm | - | 169 W/m² | - |
| 1787925865 | 25.56° C | 81% | 1017.3 hPa | 0 mm | - | 148 W/m² | - |
| 1787925564 | 25.56° C | 81% | 1017.3 hPa | 0 mm | - | 225 W/m² | - |
| 1787925260 | 25° C | 82% | 1017.1 hPa | 0 mm | - | 208 W/m² | - |
* Rain latest hour (hover to see other rain measurements)
** Current wind speed in m/s (hover to see current wind gust speed)